User: anonymous   Login
Location: Bittelbronn
(48.4454°N, 8.5870°E)
Time: 08:46:57
(UTC+00:00)
Language:

Cosmos 2074 Rocket - Orbit

View from above orbital plane
View from above orbital plane
View from above satellite
View from above satellite

Ground track
Ground track

The orbit data is extracted from the following two-line orbital elements,

1 20578U 90036B   24196.91974356  .00000149  00000-0  13714-3 0  9999
2 20578  82.9414 240.8798 0011707 313.5174 220.7168 13.76510093719255
Epoch (UTC): 14 July 2024 22:04:25
Eccentricity: 0.0011707
inclination: 82.9414°
perigee height: 967 km
apogee height: 985 km
right ascension of ascending node: 240.8798°
argument of perigee: 313.5174°
revolutions per day: 13.76510093
mean anomaly at epoch: 220.7168°
orbit number at epoch: 71925

The dashed part of the orbit path shows where the satellite is in the earth's shadow,  

DLR